FDX252 KMEM-MMMY

Flight info

Callsign FDX252
Flight time 2h 4m
Altitude 40000
Route PIEPE6 IBUFY DCT KAMEN DCT IAH J29 PSX J22 NLD UJ40 NOTAL NOTAL1A
Aircraft A333/H-SDE3GHIJ2J3J5M1RVWXY/LB2D1

Departure

Time 2026-04-21 23:24
Airport Memphis International Airport (KMEM)

Arrival

Time 2026-04-22 01:28
Airport Monterrey International Airport (MMMY)
Time Latitude Longitude Altitude Speed Heading
2026-04-21 23:04 35.06008 -89.97113 310 ft 0 kts 14°
2026-04-21 23:06 35.06008 -89.97114 310 ft 0 kts 14°
2026-04-21 23:09 35.06008 -89.97113 306 ft 0 kts 14°
2026-04-21 23:14 35.06007 -89.97114 307 ft 1 kts 14°
2026-04-21 23:14 35.05992 -89.97118 308 ft 3 kts
2026-04-21 23:14 35.05972 -89.97120 308 ft 3 kts 358°
2026-04-21 23:15 35.05952 -89.97118 307 ft 3 kts 340°
2026-04-21 23:15 35.05936 -89.97107 309 ft 3 kts 303°
2026-04-21 23:15 35.05932 -89.97096 307 ft 0 kts 272°
2026-04-21 23:16 35.05932 -89.97095 307 ft 0 kts 272°
2026-04-21 23:17 35.05932 -89.97108 309 ft 6 kts 272°
2026-04-21 23:18 35.05934 -89.97193 308 ft 12 kts 274°
2026-04-21 23:18 35.05936 -89.97313 311 ft 16 kts 271°
2026-04-21 23:18 35.05941 -89.97461 311 ft 19 kts 277°
2026-04-21 23:18 35.05970 -89.97629 308 ft 21 kts 286°
2026-04-21 23:19 35.06003 -89.97821 303 ft 25 kts 275°
2026-04-21 23:19 35.06015 -89.98053 299 ft 30 kts 272°
2026-04-21 23:19 35.06022 -89.98324 299 ft 33 kts 271°
2026-04-21 23:19 35.06003 -89.98494 299 ft 11 kts 224°
2026-04-21 23:20 35.05956 -89.98509 299 ft 7 kts 186°
2026-04-21 23:20 35.05881 -89.98508 296 ft 17 kts 178°
2026-04-21 23:20 35.05721 -89.98502 293 ft 29 kts 178°
2026-04-21 23:20 35.05508 -89.98509 294 ft 30 kts 181°
2026-04-21 23:21 35.05301 -89.98512 293 ft 29 kts 180°
2026-04-21 23:21 35.05118 -89.98525 301 ft 23 kts 195°
2026-04-21 23:21 35.04998 -89.98589 301 ft 12 kts 205°
2026-04-21 23:21 35.04981 -89.98599 306 ft 0 kts 205°
2026-04-21 23:22 35.04976 -89.98603 306 ft 4 kts 209°
2026-04-21 23:22 35.04940 -89.98656 306 ft 13 kts 251°
2026-04-21 23:23 35.04892 -89.98740 306 ft 11 kts 196°
2026-04-21 23:23 35.04824 -89.98742 303 ft 2 kts 179°
2026-04-21 23:23 35.04713 -89.98741 304 ft 42 kts 179°
2026-04-21 23:23 35.04165 -89.98733 303 ft 114 kts 179°
2026-04-21 23:24 35.03170 -89.98708 458 ft 163 kts 180°
2026-04-21 23:24 35.01978 -89.98690 1155 ft 177 kts 181°
2026-04-21 23:24 35.00692 -89.98641 2048 ft 192 kts 184°
2026-04-21 23:24 34.99269 -89.98654 2609 ft 216 kts 184°
2026-04-21 23:25 34.97680 -89.98683 2919 ft 239 kts 184°
2026-04-21 23:25 34.95970 -89.98711 3526 ft 249 kts 184°
2026-04-21 23:25 34.94231 -89.98735 4346 ft 251 kts 184°
2026-04-21 23:25 34.92506 -89.98759 5244 ft 251 kts 184°
2026-04-21 23:26 34.90754 -89.98781 6104 ft 252 kts 184°
2026-04-21 23:26 34.88986 -89.98801 6932 ft 256 kts 184°
2026-04-21 23:26 34.87194 -89.98823 7744 ft 259 kts 184°
2026-04-21 23:26 34.85370 -89.98847 8541 ft 264 kts 184°
2026-04-21 23:27 34.83515 -89.98870 9357 ft 268 kts 183°
2026-04-21 23:27 34.81636 -89.98894 10163 ft 273 kts 183°
2026-04-21 23:27 34.79678 -89.98920 10542 ft 292 kts 183°
2026-04-21 23:27 34.77573 -89.98951 10794 ft 313 kts 182°
2026-04-21 23:28 34.75341 -89.98982 11051 ft 333 kts 182°
2026-04-21 23:28 34.72955 -89.99014 11324 ft 351 kts 182°
2026-04-21 23:28 34.70487 -89.99150 11843 ft 358 kts 188°
2026-04-21 23:28 34.68049 -89.99831 12455 ft 362 kts 198°
2026-04-21 23:29 34.65654 -90.00843 13092 ft 366 kts 200°
2026-04-21 23:29 34.63247 -90.01923 13658 ft 372 kts 201°
2026-04-21 23:29 34.60807 -90.03021 14269 ft 375 kts 201°
2026-04-21 23:29 34.58337 -90.04127 14748 ft 382 kts 200°
2026-04-21 23:30 34.55859 -90.05232 15247 ft 386 kts 201°
2026-04-21 23:30 34.53320 -90.06361 15757 ft 391 kts 201°
2026-04-21 23:30 34.50744 -90.07504 16266 ft 396 kts 201°
2026-04-21 23:30 34.48135 -90.08645 16766 ft 401 kts 199°
2026-04-21 23:31 34.45397 -90.09455 17267 ft 406 kts 191°
2026-04-21 23:31 34.42579 -90.09911 17756 ft 411 kts 187°
2026-04-21 23:31 34.39713 -90.10296 18191 ft 417 kts 187°
2026-04-21 23:31 34.36809 -90.10681 18657 ft 421 kts 187°
2026-04-21 23:32 34.33886 -90.11072 19145 ft 423 kts 188°
2026-04-21 23:32 34.31003 -90.11461 19661 ft 423 kts 188°
2026-04-21 23:32 34.28069 -90.11858 20173 ft 424 kts 188°
2026-04-21 23:32 34.25121 -90.12259 20653 ft 426 kts 188°
2026-04-21 23:33 34.22163 -90.12662 21118 ft 428 kts 189°
2026-04-21 23:33 34.19194 -90.13066 21616 ft 428 kts 189°
2026-04-21 23:33 34.16226 -90.13503 22097 ft 429 kts 192°
2026-04-21 23:33 34.13322 -90.14303 22524 ft 428 kts 201°
2026-04-21 23:34 34.10590 -90.15683 22957 ft 426 kts 211°
2026-04-21 23:34 34.08144 -90.17609 23381 ft 423 kts 221°
2026-04-21 23:34 34.06016 -90.20046 23843 ft 421 kts 231°
2026-04-21 23:34 34.04189 -90.22816 24195 ft 422 kts 235°
2026-04-21 23:35 34.02473 -90.25704 24507 ft 424 kts 237°
2026-04-21 23:35 34.00809 -90.28652 24826 ft 427 kts 238°
2026-04-21 23:35 33.99152 -90.31633 25150 ft 429 kts 238°
2026-04-21 23:35 33.97482 -90.34630 25470 ft 431 kts 238°
2026-04-21 23:36 33.95792 -90.37634 25787 ft 434 kts 238°
2026-04-21 23:36 33.94105 -90.40604 26040 ft 437 kts 237°
2026-04-21 23:36 33.92373 -90.43629 26330 ft 439 kts 237°
2026-04-21 23:36 33.90629 -90.46660 26656 ft 441 kts 237°
2026-04-21 23:37 33.88869 -90.49710 26982 ft 443 kts 237°
2026-04-21 23:37 33.87105 -90.52762 27287 ft 445 kts 237°
2026-04-21 23:37 33.85336 -90.55821 27605 ft 447 kts 237°
2026-04-21 23:37 33.83557 -90.58896 27898 ft 449 kts 237°
2026-04-21 23:38 33.81768 -90.61986 28178 ft 451 kts 237°
2026-04-21 23:38 33.79972 -90.65088 28464 ft 453 kts 237°
2026-04-21 23:38 33.78169 -90.68199 28771 ft 454 kts 237°
2026-04-21 23:38 33.76356 -90.71326 29052 ft 456 kts 237°
2026-04-21 23:39 33.74535 -90.74462 29346 ft 458 kts 237°
2026-04-21 23:39 33.72708 -90.77607 29588 ft 460 kts 237°
2026-04-21 23:39 33.70888 -90.80737 29775 ft 464 kts 236°
2026-04-21 23:39 33.69033 -90.83925 30033 ft 466 kts 236°
2026-04-21 23:40 33.67176 -90.87113 30320 ft 467 kts 236°
2026-04-21 23:40 33.65312 -90.90310 30606 ft 467 kts 236°
2026-04-21 23:40 33.63453 -90.93494 31028 ft 464 kts 236°
2026-04-21 23:40 33.61607 -90.96652 31474 ft 460 kts 236°
2026-04-21 23:41 33.59780 -90.99778 31922 ft 456 kts 236°
2026-04-21 23:41 33.57964 -91.02880 32326 ft 453 kts 236°
2026-04-21 23:41 33.56159 -91.05963 32720 ft 451 kts 236°
2026-04-21 23:41 33.54362 -91.09029 33103 ft 448 kts 236°
2026-04-21 23:42 33.52571 -91.12083 33482 ft 446 kts 236°
2026-04-21 23:42 33.50809 -91.15084 33850 ft 444 kts 236°
2026-04-21 23:42 33.49030 -91.18112 34117 ft 444 kts 236°
2026-04-21 23:42 33.47253 -91.21136 34386 ft 443 kts 236°
2026-04-21 23:43 33.45476 -91.24155 34646 ft 442 kts 236°
2026-04-21 23:43 33.43704 -91.27165 34893 ft 442 kts 237°
2026-04-21 23:43 33.41934 -91.30169 35137 ft 441 kts 237°
2026-04-21 23:43 33.40162 -91.33172 35375 ft 441 kts 237°
2026-04-21 23:44 33.38966 -91.35198 35544 ft 441 kts 237°
2026-04-21 23:44 33.37218 -91.38158 35772 ft 440 kts 237°
2026-04-21 23:44 33.35450 -91.41148 36001 ft 439 kts 237°
2026-04-21 23:44 33.33686 -91.44129 36235 ft 439 kts 237°
2026-04-21 23:45 33.31920 -91.47113 36437 ft 439 kts 237°
2026-04-21 23:45 33.28393 -91.53062 36861 ft 438 kts 237°
2026-04-21 23:45 33.26629 -91.56033 36989 ft 439 kts 237°
2026-04-21 23:46 33.24861 -91.59010 37175 ft 440 kts 237°
2026-04-21 23:46 33.23091 -91.61987 37394 ft 439 kts 237°
2026-04-21 23:46 33.21323 -91.64958 37623 ft 438 kts 237°
2026-04-21 23:46 33.19558 -91.67921 37826 ft 437 kts 237°
2026-04-21 23:47 33.17808 -91.70858 38044 ft 436 kts 237°
2026-04-21 23:47 33.16051 -91.73804 38232 ft 436 kts 237°
2026-04-21 23:47 33.14311 -91.76718 38392 ft 435 kts 238°
2026-04-21 23:47 33.12555 -91.79654 38690 ft 433 kts 238°
2026-04-21 23:48 33.10811 -91.82568 38926 ft 431 kts 238°
2026-04-21 23:48 33.09071 -91.85477 39065 ft 431 kts 238°
2026-04-21 23:48 33.07330 -91.88388 39177 ft 431 kts 238°
2026-04-21 23:48 33.05588 -91.91296 39284 ft 431 kts 238°
2026-04-21 23:49 33.03844 -91.94205 39397 ft 432 kts 238°
2026-04-21 23:49 33.02097 -91.97118 39507 ft 432 kts 238°
2026-04-21 23:49 33.00346 -92.00034 39626 ft 432 kts 238°
2026-04-21 23:49 32.98598 -92.02940 39747 ft 432 kts 238°
2026-04-21 23:50 32.96845 -92.05854 39863 ft 432 kts 238°
2026-04-21 23:50 32.95096 -92.08759 39977 ft 432 kts 238°
2026-04-21 23:50 32.93344 -92.11667 40099 ft 432 kts 238°
2026-04-21 23:51 32.89863 -92.17436 40249 ft 431 kts 238°
2026-04-21 23:51 32.86377 -92.23204 40239 ft 428 kts 239°
2026-04-21 23:52 32.82912 -92.28927 40256 ft 425 kts 239°
2026-04-21 23:52 32.79452 -92.34638 40254 ft 424 kts 239°
2026-04-21 23:53 32.75999 -92.40330 40254 ft 425 kts 238°
2026-04-21 23:53 32.72514 -92.46068 40249 ft 431 kts 238°
2026-04-21 23:54 32.68982 -92.51874 40249 ft 436 kts 238°
2026-04-21 23:54 32.64932 -92.57307 40248 ft 443 kts 229°
2026-04-21 23:55 32.60440 -92.62261 40249 ft 444 kts 227°
2026-04-21 23:55 32.55844 -92.67142 40247 ft 443 kts 227°
2026-04-21 23:56 32.51247 -92.72012 40250 ft 442 kts 227°
2026-04-21 23:56 32.46679 -92.76870 40250 ft 443 kts 227°
2026-04-21 23:57 32.42100 -92.81746 40256 ft 443 kts 227°
2026-04-21 23:57 32.37509 -92.86632 40255 ft 446 kts 227°
2026-04-21 23:58 32.32877 -92.91555 40253 ft 449 kts 227°
2026-04-21 23:58 32.28218 -92.96493 40258 ft 449 kts 227°
2026-04-21 23:59 32.23566 -93.01417 40250 ft 448 kts 227°
2026-04-21 23:59 32.18914 -93.06335 40246 ft 448 kts 227°
2026-04-22 00:00 32.14299 -93.11208 40232 ft 447 kts 227°
2026-04-22 00:00 32.09663 -93.16096 40250 ft 447 kts 227°
2026-04-22 00:01 32.05026 -93.20978 40248 ft 447 kts 227°
2026-04-22 00:01 32.00390 -93.25852 40246 ft 446 kts 227°
2026-04-22 00:02 31.95762 -93.30710 40248 ft 444 kts 227°
2026-04-22 00:02 31.91150 -93.35547 40243 ft 444 kts 227°
2026-04-22 00:03 31.86529 -93.40386 40247 ft 444 kts 227°
2026-04-22 00:03 31.81935 -93.45189 40247 ft 444 kts 227°
2026-04-22 00:04 31.77315 -93.50013 40245 ft 444 kts 227°
2026-04-22 00:04 31.72718 -93.54803 40244 ft 439 kts 227°
2026-04-22 00:05 31.68153 -93.59553 40251 ft 437 kts 227°
2026-04-22 00:05 31.63597 -93.64293 40249 ft 437 kts 227°
2026-04-22 00:06 31.59035 -93.69033 40246 ft 438 kts 227°
2026-04-22 00:06 31.54472 -93.73765 40247 ft 438 kts 227°
2026-04-22 00:07 31.49932 -93.78466 40251 ft 438 kts 227°
2026-04-22 00:07 31.45365 -93.83189 40225 ft 437 kts 227°
2026-04-22 00:08 31.40810 -93.87891 40238 ft 436 kts 227°
2026-04-22 00:08 31.36260 -93.92584 40244 ft 435 kts 227°
2026-04-22 00:09 31.31713 -93.97268 40234 ft 435 kts 227°
2026-04-22 00:09 31.27157 -94.01955 40234 ft 435 kts 227°
2026-04-22 00:10 31.22633 -94.06603 40233 ft 435 kts 227°
2026-04-22 00:10 31.18071 -94.11283 40229 ft 436 kts 227°
2026-04-22 00:11 31.13511 -94.15954 40228 ft 435 kts 227°
2026-04-22 00:11 31.08979 -94.20591 40220 ft 435 kts 227°
2026-04-22 00:12 31.04417 -94.25252 40224 ft 435 kts 227°
2026-04-22 00:12 30.99865 -94.29897 40216 ft 434 kts 227°
2026-04-22 00:13 30.95315 -94.34534 40215 ft 435 kts 227°
2026-04-22 00:13 30.90784 -94.39145 40212 ft 435 kts 227°
2026-04-22 00:14 30.86220 -94.43785 40202 ft 435 kts 227°
2026-04-22 00:14 30.81664 -94.48409 40212 ft 435 kts 227°
2026-04-22 00:15 30.77103 -94.53033 40211 ft 435 kts 227°
2026-04-22 00:15 30.72539 -94.57654 40206 ft 435 kts 227°
2026-04-22 00:16 30.68000 -94.62242 40212 ft 435 kts 227°
2026-04-22 00:16 30.63429 -94.66859 40210 ft 435 kts 227°
2026-04-22 00:17 30.58854 -94.71472 40207 ft 435 kts 227°
2026-04-22 00:17 30.54282 -94.76076 40213 ft 435 kts 227°
2026-04-22 00:18 30.49738 -94.80647 40210 ft 435 kts 227°
2026-04-22 00:18 30.45158 -94.85248 40207 ft 435 kts 226°
2026-04-22 00:19 30.40573 -94.89847 40202 ft 435 kts 226°
2026-04-22 00:19 30.35995 -94.94434 40201 ft 435 kts 226°
2026-04-22 00:20 30.31415 -94.99018 40202 ft 435 kts 226°
2026-04-22 00:20 30.26869 -95.03560 40199 ft 435 kts 226°
2026-04-22 00:21 30.22282 -95.08139 40199 ft 435 kts 226°
2026-04-22 00:21 30.17698 -95.12708 40199 ft 435 kts 226°
2026-04-22 00:22 30.13115 -95.17272 40197 ft 435 kts 226°
2026-04-22 00:22 30.08555 -95.21805 40194 ft 435 kts 226°
2026-04-22 00:23 30.03967 -95.26362 40192 ft 435 kts 226°
2026-04-22 00:23 29.99381 -95.30911 40184 ft 435 kts 226°
2026-04-22 00:24 29.94685 -95.35331 40191 ft 438 kts 222°
2026-04-22 00:24 29.89738 -95.39462 40193 ft 439 kts 221°
2026-04-22 00:25 29.84777 -95.43501 40196 ft 439 kts 221°
2026-04-22 00:25 29.79767 -95.47563 40195 ft 439 kts 221°
2026-04-22 00:26 29.74769 -95.51622 40187 ft 439 kts 221°
2026-04-22 00:26 29.69771 -95.55682 40173 ft 439 kts 221°
2026-04-22 00:27 29.64774 -95.59738 40188 ft 439 kts 221°
2026-04-22 00:27 29.59815 -95.63758 40173 ft 439 kts 221°
2026-04-22 00:28 29.54819 -95.67802 40176 ft 439 kts 221°
2026-04-22 00:28 29.49826 -95.71840 40174 ft 439 kts 221°
2026-04-22 00:29 29.44816 -95.75886 40178 ft 440 kts 221°
2026-04-22 00:29 29.39802 -95.79931 40156 ft 440 kts 221°
2026-04-22 00:30 29.35641 -95.83283 40166 ft 439 kts 221°
2026-04-22 00:30 29.30645 -95.87303 40171 ft 439 kts 221°
2026-04-22 00:31 29.25640 -95.91327 40170 ft 439 kts 221°
2026-04-22 00:31 29.20636 -95.95344 40164 ft 439 kts 221°
2026-04-22 00:32 29.15631 -95.99357 40165 ft 439 kts 221°
2026-04-22 00:32 29.10649 -96.03347 40152 ft 439 kts 221°
2026-04-22 00:33 29.05637 -96.07355 40137 ft 438 kts 221°
2026-04-22 00:33 29.00639 -96.11348 40123 ft 437 kts 221°
2026-04-22 00:34 28.95649 -96.15330 40126 ft 437 kts 221°
2026-04-22 00:34 28.90701 -96.19274 40127 ft 436 kts 221°
2026-04-22 00:35 28.85706 -96.23251 40132 ft 436 kts 221°
2026-04-22 00:35 28.80715 -96.27220 40121 ft 436 kts 221°
2026-04-22 00:36 28.75998 -96.31478 40137 ft 428 kts 231°
2026-04-22 00:36 28.72009 -96.36470 40137 ft 425 kts 234°
2026-04-22 00:37 28.68181 -96.41594 40133 ft 425 kts 234°
2026-04-22 00:37 28.64390 -96.46717 40135 ft 425 kts 234°
2026-04-22 00:38 28.60571 -96.51845 40129 ft 424 kts 234°
2026-04-22 00:38 28.56743 -96.56955 40118 ft 424 kts 234°
2026-04-22 00:39 28.52910 -96.62059 40118 ft 424 kts 234°
2026-04-22 00:39 28.49077 -96.67157 40106 ft 424 kts 234°
2026-04-22 00:40 28.45249 -96.72242 40116 ft 423 kts 234°
2026-04-22 00:40 28.41447 -96.77289 40115 ft 423 kts 234°
2026-04-22 00:41 28.37621 -96.82362 40114 ft 423 kts 234°
2026-04-22 00:41 28.33793 -96.87430 40108 ft 422 kts 234°
2026-04-22 00:42 28.29966 -96.92489 40107 ft 422 kts 234°
2026-04-22 00:42 28.26143 -96.97538 40108 ft 422 kts 234°
2026-04-22 00:43 28.22318 -97.02583 40100 ft 422 kts 234°
2026-04-22 00:43 28.18479 -97.07641 40081 ft 422 kts 234°
2026-04-22 00:44 28.14658 -97.12668 40098 ft 420 kts 234°
2026-04-22 00:44 28.10870 -97.17646 40103 ft 419 kts 234°
2026-04-22 00:45 28.07055 -97.22655 40092 ft 419 kts 234°
2026-04-22 00:45 28.03234 -97.27665 40101 ft 419 kts 234°
2026-04-22 00:46 27.99446 -97.32627 40089 ft 419 kts 234°
2026-04-22 00:46 27.95628 -97.37622 40083 ft 419 kts 234°
2026-04-22 00:47 27.92018 -97.42770 40103 ft 415 kts 241°
2026-04-22 00:47 27.89597 -97.48616 40096 ft 409 kts 255°
2026-04-22 00:48 27.88138 -97.54834 40092 ft 409 kts 257°
2026-04-22 00:48 27.86861 -97.61111 40094 ft 409 kts 258°
2026-04-22 00:49 27.85599 -97.67346 40091 ft 409 kts 258°
2026-04-22 00:49 27.84300 -97.73615 40093 ft 409 kts 257°
2026-04-22 00:50 27.82987 -97.79872 40098 ft 409 kts 257°
2026-04-22 00:50 27.81666 -97.86134 40093 ft 409 kts 257°
2026-04-22 00:51 27.80352 -97.92351 40081 ft 409 kts 257°
2026-04-22 00:51 27.79029 -97.98606 40082 ft 409 kts 257°
2026-04-22 00:52 27.77702 -98.04860 40081 ft 409 kts 257°
2026-04-22 00:52 27.76374 -98.11107 40081 ft 409 kts 257°
2026-04-22 00:53 27.75051 -98.17314 40081 ft 409 kts 257°
2026-04-22 00:53 27.73719 -98.23552 40076 ft 409 kts 257°
2026-04-22 00:54 27.72382 -98.29794 40073 ft 409 kts 257°
2026-04-22 00:54 27.71043 -98.36030 40063 ft 409 kts 257°
2026-04-22 00:55 27.69696 -98.42289 40065 ft 410 kts 257°
2026-04-22 00:55 27.67674 -98.51660 40065 ft 410 kts 257°
2026-04-22 00:56 27.66321 -98.57915 40064 ft 410 kts 257°
2026-04-22 00:56 27.64965 -98.64170 40063 ft 410 kts 257°
2026-04-22 00:57 27.63605 -98.70424 40067 ft 410 kts 257°
2026-04-22 00:57 27.62241 -98.76685 40065 ft 411 kts 257°
2026-04-22 00:58 27.60877 -98.82931 40064 ft 412 kts 257°
2026-04-22 00:58 27.59502 -98.89212 40064 ft 412 kts 257°
2026-04-22 00:59 27.58124 -98.95492 40062 ft 412 kts 256°
2026-04-22 00:59 27.56744 -99.01768 40064 ft 412 kts 256°
2026-04-22 01:00 27.55361 -99.08045 40067 ft 412 kts 256°
2026-04-22 01:00 27.53982 -99.14286 40058 ft 413 kts 256°
2026-04-22 01:01 27.52588 -99.20583 40069 ft 414 kts 256°
2026-04-22 01:01 27.51188 -99.26891 40067 ft 414 kts 256°
2026-04-22 01:02 27.49787 -99.33187 40068 ft 412 kts 256°
2026-04-22 01:02 27.48397 -99.39424 40065 ft 410 kts 256°
2026-04-22 01:03 27.46910 -99.45576 40064 ft 410 kts 254°
2026-04-22 01:03 27.45036 -99.51634 40053 ft 411 kts 246°
2026-04-22 01:04 27.41907 -99.57045 40056 ft 416 kts 232°
2026-04-22 01:04 27.37465 -99.61322 39630 ft 425 kts 220°
2026-04-22 01:05 27.35014 -99.63192 39215 ft 425 kts 219°
2026-04-22 01:05 27.32539 -99.64989 38833 ft 423 kts 218°
2026-04-22 01:05 27.30056 -99.66760 38359 ft 422 kts 218°
2026-04-22 01:05 27.27582 -99.68524 37875 ft 421 kts 218°
2026-04-22 01:06 27.25111 -99.70300 37436 ft 422 kts 218°
2026-04-22 01:06 27.22639 -99.72091 37013 ft 424 kts 218°
2026-04-22 01:06 27.20185 -99.73880 36622 ft 426 kts 218°
2026-04-22 01:06 27.17693 -99.75703 36215 ft 428 kts 218°
2026-04-22 01:07 27.15183 -99.77540 35813 ft 430 kts 218°
2026-04-22 01:07 27.12672 -99.79378 35405 ft 432 kts 218°
2026-04-22 01:07 27.10147 -99.81224 34997 ft 433 kts 218°
2026-04-22 01:07 27.07618 -99.83072 34578 ft 435 kts 218°
2026-04-22 01:08 27.05106 -99.84905 34176 ft 436 kts 218°
2026-04-22 01:08 27.02555 -99.86766 33716 ft 438 kts 218°
2026-04-22 01:08 26.99995 -99.88633 33220 ft 440 kts 218°
2026-04-22 01:08 26.97424 -99.90506 32705 ft 442 kts 218°
2026-04-22 01:09 26.94822 -99.92402 32197 ft 444 kts 218°
2026-04-22 01:09 26.92226 -99.94291 31701 ft 447 kts 218°
2026-04-22 01:09 26.89613 -99.96193 31198 ft 449 kts 218°
2026-04-22 01:09 26.86993 -99.98097 30726 ft 449 kts 218°
2026-04-22 01:10 26.84378 -99.99995 30259 ft 447 kts 218°
2026-04-22 01:10 26.81777 -100.01881 29738 ft 444 kts 218°
2026-04-22 01:10 26.79218 -100.03735 29175 ft 441 kts 218°
2026-04-22 01:10 26.76653 -100.05593 28647 ft 437 kts 218°
2026-04-22 01:11 26.74112 -100.07434 28130 ft 433 kts 219°
2026-04-22 01:11 26.71595 -100.09259 27613 ft 429 kts 219°
2026-04-22 01:11 26.69098 -100.11069 27115 ft 426 kts 219°
2026-04-22 01:11 26.66612 -100.12870 26628 ft 424 kts 219°
2026-04-22 01:12 26.64148 -100.14654 26151 ft 418 kts 219°
2026-04-22 01:12 26.61731 -100.16400 25678 ft 405 kts 219°
2026-04-22 01:12 26.59408 -100.18063 25224 ft 389 kts 218°
2026-04-22 01:12 26.56968 -100.19370 24773 ft 394 kts 204°
2026-04-22 01:13 26.54214 -100.19838 24328 ft 412 kts 186°
2026-04-22 01:13 26.51343 -100.19257 23872 ft 428 kts 166°
2026-04-22 01:13 26.48682 -100.17669 23307 ft 440 kts 150°
2026-04-22 01:13 26.46234 -100.15615 22744 ft 440 kts 147°
2026-04-22 01:14 26.43849 -100.13542 22177 ft 438 kts 147°
2026-04-22 01:14 26.41437 -100.11478 21648 ft 435 kts 148°
2026-04-22 01:14 26.39041 -100.09458 21046 ft 426 kts 148°
2026-04-22 01:14 26.36705 -100.07509 20423 ft 414 kts 148°
2026-04-22 01:15 26.34403 -100.05604 19798 ft 409 kts 148°
2026-04-22 01:15 26.32116 -100.03722 19203 ft 408 kts 148°
2026-04-22 01:15 26.29835 -100.01850 18612 ft 407 kts 147°
2026-04-22 01:15 26.27562 -99.99985 18111 ft 401 kts 147°
2026-04-22 01:16 26.25369 -99.98194 17911 ft 391 kts 149°
2026-04-22 01:16 26.23069 -99.96714 17697 ft 372 kts 161°
2026-04-22 01:16 26.20684 -99.95898 17369 ft 346 kts 176°
2026-04-22 01:16 26.18354 -99.95853 16848 ft 328 kts 194°
2026-04-22 01:17 26.16213 -99.96591 16307 ft 318 kts 212°
2026-04-22 01:17 26.14442 -99.97986 15779 ft 308 kts 231°
2026-04-22 01:17 26.13317 -99.99961 15249 ft 299 kts 248°
2026-04-22 01:17 26.12500 -100.02096 14697 ft 299 kts 251°
2026-04-22 01:18 26.11754 -100.04217 14062 ft 297 kts 251°
2026-04-22 01:18 26.11016 -100.06356 13373 ft 295 kts 251°
2026-04-22 01:18 26.10286 -100.08483 12671 ft 294 kts 251°
2026-04-22 01:18 26.09561 -100.10595 12049 ft 290 kts 251°
2026-04-22 01:19 26.09085 -100.11977 11696 ft 286 kts 251°
2026-04-22 01:19 26.08380 -100.14021 11205 ft 281 kts 250°
2026-04-22 01:19 26.07680 -100.16041 10745 ft 279 kts 250°
2026-04-22 01:19 26.06978 -100.18063 10275 ft 280 kts 250°
2026-04-22 01:20 26.06257 -100.20085 9814 ft 278 kts 246°
2026-04-22 01:20 26.05150 -100.21804 9295 ft 273 kts 222°
2026-04-22 01:20 26.03612 -100.23002 8833 ft 265 kts 213°
2026-04-22 01:20 26.02057 -100.24028 8411 ft 254 kts 212°
2026-04-22 01:21 26.00582 -100.24987 8065 ft 243 kts 211°
2026-04-22 01:21 25.99153 -100.25926 7714 ft 234 kts 211°
2026-04-22 01:21 25.97763 -100.26847 7354 ft 231 kts 211°
2026-04-22 01:21 25.96379 -100.27770 7019 ft 232 kts 210°
2026-04-22 01:22 25.94993 -100.28697 6681 ft 232 kts 210°
2026-04-22 01:22 25.93619 -100.29619 6332 ft 229 kts 210°
2026-04-22 01:22 25.92269 -100.30526 5973 ft 224 kts 207°
2026-04-22 01:22 25.90881 -100.31233 5600 ft 215 kts 187°
2026-04-22 01:23 25.89470 -100.31064 5310 ft 198 kts 150°
2026-04-22 01:23 25.88466 -100.30099 4925 ft 193 kts 126°
2026-04-22 01:23 25.87723 -100.28841 4450 ft 197 kts 120°
2026-04-22 01:23 25.87018 -100.27516 3988 ft 202 kts 120°
2026-04-22 01:24 25.86303 -100.26171 3597 ft 200 kts 119°
2026-04-22 01:24 25.85611 -100.24882 3506 ft 189 kts 120°
2026-04-22 01:24 25.84939 -100.23644 3505 ft 185 kts 120°
2026-04-22 01:24 25.84320 -100.22498 3512 ft 160 kts 120°
2026-04-22 01:25 25.83784 -100.21505 3385 ft 144 kts 119°
2026-04-22 01:25 25.83324 -100.20533 3077 ft 140 kts 114°
2026-04-22 01:25 25.82900 -100.19597 2782 ft 136 kts 118°
2026-04-22 01:25 25.82398 -100.18716 2524 ft 135 kts 123°
2026-04-22 01:26 25.81845 -100.17868 2349 ft 136 kts 123°
2026-04-22 01:26 25.81335 -100.16966 2167 ft 139 kts 118°
2026-04-22 01:26 25.80867 -100.16038 2051 ft 136 kts 121°
2026-04-22 01:26 25.80371 -100.15149 1955 ft 135 kts 120°
2026-04-22 01:27 25.79882 -100.14258 1791 ft 135 kts 122°
2026-04-22 01:27 25.79366 -100.13392 1642 ft 135 kts 122°
2026-04-22 01:27 25.78872 -100.12511 1457 ft 133 kts 120°
2026-04-22 01:27 25.78384 -100.11634 1305 ft 134 kts 121°
2026-04-22 01:28 25.77945 -100.10854 1276 ft 93 kts 121°
2026-04-22 01:28 25.77711 -100.10431 1275 ft 37 kts 122°
2026-04-22 01:28 25.77620 -100.10271 1273 ft 32 kts 122°
2026-04-22 01:28 25.77483 -100.10028 1266 ft 41 kts 122°
2026-04-22 01:29 25.77343 -100.09780 1271 ft 32 kts 121°
2026-04-22 01:29 25.77226 -100.09718 1264 ft 15 kts 198°
2026-04-22 01:29 25.77158 -100.09787 1267 ft 12 kts 258°
2026-04-22 01:29 25.77173 -100.09857 1269 ft 8 kts 298°
2026-04-22 01:30 25.77202 -100.09913 1268 ft 10 kts 301°
2026-04-22 01:30 25.77253 -100.10007 1271 ft 18 kts 301°
2026-04-22 01:30 25.77330 -100.10147 1276 ft 23 kts 301°
2026-04-22 01:30 25.77410 -100.10295 1275 ft 22 kts 301°
2026-04-22 01:31 25.77485 -100.10432 1276 ft 20 kts 301°
2026-04-22 01:31 25.77552 -100.10553 1282 ft 17 kts 300°
2026-04-22 01:31 25.77614 -100.10666 1281 ft 18 kts 301°
2026-04-22 01:31 25.77683 -100.10793 1277 ft 21 kts 301°
2026-04-22 01:32 25.77761 -100.10934 1276 ft 22 kts 302°
2026-04-22 01:32 25.77839 -100.11078 1277 ft 22 kts 300°
2026-04-22 01:32 25.77916 -100.11217 1282 ft 21 kts 301°
2026-04-22 01:32 25.77986 -100.11343 1284 ft 18 kts 297°
2026-04-22 01:33 25.77977 -100.11402 1282 ft 4 kts 213°
2026-04-22 01:33 25.77949 -100.11421 1285 ft 6 kts 211°
2026-04-22 01:33 25.77936 -100.11429 1285 ft 2 kts 211°